Location: Star Hoppers Observatory
(42.7905°N, 83.6127°W)
Time: 14:10:56
(UTC-05:00)

Daily predictions for brighter satellites

Satellite Brightness Start Highest point End
(mag) Time Altitude Azimuth Time Altitude Azimuth Time Altitude Azimuth
Cosmos 1378 Rocket 3.5 18:37:15 10° N 18:41:36 86° E 18:45:53 10° S
YAOGAN 1 4.2 18:40:50 10° SSW 18:44:54 40° W 18:49:00 10° NNW
Cosmos 1908 Rocket 3.7 18:41:46 10° S 18:46:07 79° W 18:50:32 10° N
Cosmos 1315 Rocket 4.0 18:43:12 10° SSW 18:47:02 47° WNW 18:50:52 10° N
FREGAT/IRIS 3.5 18:47:06 10° SE 18:49:50 30° ENE 18:52:36 10° N
Cosmos 2322 Rocket 2.7 18:45:26 10° N 18:50:40 38° ENE 18:55:53 10° SE
Cosmos 1782 Rocket 3.5 18:46:37 10° S 18:50:59 68° E 18:55:25 10° NNE
Cosmos 1346 Rocket 2.8 18:52:10 10° N 18:56:09 90° E 19:00:03 10° S
Cosmos 1340 4.4 18:54:44 10° NNE 18:56:54 14° ENE 18:58:22 12° E
Meteor 1-25 Rocket 4.4 18:53:34 10° SSE 18:58:53 48° E 19:04:18 10° NNE
Meteor 1-28 Rocket 3.3 18:55:24 10° N 18:59:13 86° WNW 19:03:01 10° SSW
Okean 2 Rocket 3.1 18:56:19 10° S 19:00:44 64° E 19:05:09 10° NNE
COSMO-SKYMED 1 3.0 18:57:04 10° N 19:01:23 67° WNW 19:05:41 10° SSW
ALOS 2.7 19:00:54 10° SE 19:05:13 39° ENE 19:09:34 10° N
HJ-1C 4.2 19:02:52 10° SE 19:05:52 31° ENE 19:08:54 10° N
CENTAUR R/B 3.2 18:58:25 10° NW 19:06:19 84° SW 19:14:42 10° SSE
Cosmos 1833 Rocket 4.3 19:03:55 10° WSW 19:09:02 35° WNW 19:14:11 10° N
Cosmos 1745 Rocket 4.0 19:03:40 10° S 19:09:59 79° E 19:16:18 10° N
SL-8 R/B 3.9 19:06:53 10° WNW 19:11:42 70° SSW 19:16:30 10° SE
H-2A R/B 3.6 19:10:54 10° SE 19:14:01 27° ENE 19:17:12 10° NNE
NOSS 2-2 (E) 3.6 19:10:21 10° SW 19:14:25 81° NW 19:19:13 10° NE
Cosmos 2151 Rocket 3.8 19:14:26 10° SSE 19:18:42 46° E 19:23:02 10° NNE
Cosmos 1818 4.3 19:16:37 10° S 19:21:19 31° ESE 19:24:33 17° ENE
FENGYUN 3A 3.7 19:17:04 10° SSE 19:22:21 59° ENE 19:27:41 10° N
ATLAS CENTAUR R/B 3.9 19:19:08 10° W 19:22:30 20° NW 19:25:44 10° N
Cosmos 1812 2.6 19:19:34 10° N 19:23:28 81° E 19:27:19 10° S
deb Kosmos-1763 4.3 19:21:32 10° S 19:25:13 50° ESE 19:28:55 10° NNE
Cosmos 1386 Rocket 4.4 19:20:52 10° S 19:27:01 81° E 19:33:06 10° N
Cosmos 44 Rocket 3.7 19:25:29 10° NW 19:30:11 61° WSW 19:34:47 10° SSE
DELTA 2 R/B (1) 3.8 19:26:12 10° WSW 19:31:45 64° S 19:35:04 24° ESE
NOSS 2-2 (D) 4.0 19:30:09 10° SW 19:34:10 61° NW 19:38:54 10° NNE
SL-19 R/B 4.2 19:35:50 10° SSE 19:41:24 78° ENE 19:47:19 10° NNW
Cosmos 2292 Rocket 3.9 19:38:30 10° S 19:43:03 74° E 19:49:16 10° N
Cosmos 2360 Rocket 2.6 19:39:38 10° NNW 19:44:58 41° ENE 19:46:58 31° ESE
Cosmos 1980 Rocket 4.2 19:40:39 10° NW 19:45:30 30° WSW 19:50:22 10° SSW
Cosmos 1602 4.1 19:41:54 10° SSE 19:45:05 40° ESE 19:45:05 40° ESE
Cosmos 1461 2.7 19:43:17 10° NNW 19:47:16 65° NE 19:48:31 41° ESE
BREEZE-M DEB (TANK) 4.3 19:45:36 10° SSW 19:47:59 19° SSE 19:47:59 19° SSE
SJ-6B 4.0 19:44:39 10° S 19:48:33 44° W 19:52:24 10° NNW
Cosmos 2219 Rocket 4.0 19:46:27 10° NNE 19:48:55 14° NE 19:48:55 14° NE
Tiangong 2 0.9 19:48:04 10° W 19:51:09 75° S 19:51:10 75° S
Cosmos 676 Rocket 3.9 19:46:50 10° S 19:51:54 61° ESE 19:57:03 10° NNE
Helios 1A 3.1 19:52:22 45° ESE 19:53:01 50° ENE 19:57:05 10° N
Cosmos 407 Rocket 3.4 19:48:16 10° SSW 19:53:29 90° ESE 19:58:50 10° NNE
SAR-Lupe-1 4.4 19:58:28 49° NNE 19:58:28 49° NNE 20:01:20 10° N
Cosmos 1833 4.3 19:54:01 10° S 19:59:30 50° ESE 20:01:51 31° NE
SAR-Lupe-4 3.4 20:01:42 80° E 20:01:46 81° ENE 20:05:22 10° N
Cosmos 2333 Rocket 4.0 19:59:25 10° N 20:01:49 15° NNE 20:01:49 15° NNE
Meteor 1-19 Rocket 4.1 19:57:27 10° N 20:03:05 69° ENE 20:08:14 13° SSE
Cosmos 44 4.1 19:59:03 10° NW 20:03:16 44° WSW 20:06:46 13° S
GEOS 3 Rocket 4.5 20:00:31 10° NNE 20:05:32 49° NW 20:10:36 10° WSW
Resurs 01 Rocket 2.1 20:01:56 10° S 20:06:18 62° W 20:10:40 10° NNW
Cosmos 2181 Rocket 3.9 20:03:31 10° N 20:09:46 90° W 20:16:04 10° S
Cosmos 1536 Rocket 4.2 20:05:58 10° NNW 20:10:20 56° W 20:14:42 10° S
Meteor 1-13 Rocket 4.1 20:08:15 10° N 20:13:48 85° W 20:19:24 10° S
SL-16 R/B 3.1 20:09:10 10° NW 20:14:36 48° WSW 20:20:01 10° S
DNEPR-1 R/B 4.4 20:15:13 10° NW 20:19:17 45° WSW 20:20:46 31° SSW
Helios 1B rocket 4.3 20:27:49 22° SSW 20:27:49 22° SSW 20:29:18 10° SSW
Cosmos 1140 Rocket 3.4 20:21:56 10° SSW 20:26:22 65° SSE 20:26:22 65° SSE
Cosmos 1633 3.9 20:25:49 10° SSW 20:28:24 36° WSW 20:28:24 36° WSW
Cosmos 2184 Rocket 3.9 20:26:19 10° S 20:32:35 68° E 20:38:50 10° NNE
Cosmos 1340 4.0 20:29:15 10° NNW 20:32:48 38° W 20:33:19 36° WSW
CZ-2D R/B 4.4 20:32:26 39° WSW 20:32:54 41° W 20:36:33 10° NNW
Meteor 1-23 Rocket 4.1 20:27:36 10° N 20:33:22 73° ENE 20:33:22 73° ENE
Cosmos 2322 Rocket 3.8 20:29:41 10° NW 20:34:35 32° WSW 20:39:29 10° SSW
Cosmos 2074 Rocket 3.8 20:29:06 10° S 20:35:18 74° E 20:41:34 10° NNE
Cosmos 2322 3.6 20:36:33 10° NNW 20:42:18 82° WSW 20:42:35 79° SSW
Envisat 3.7 20:44:45 46° N 20:44:45 46° N 20:48:18 10° NNW
SL-08 ROCKET BODY 4.4 20:37:39 10° S 20:43:48 87° W 20:50:03 10° N
Meteor 1-11 Rocket 4.3 20:42:18 10° SSW 20:47:56 57° WNW 20:53:45 10° N
Meteor 2-4 Rocket 3.9 20:43:40 10° NNW 20:49:16 68° W 20:49:50 63° SW
COSMOS 2428 3.4 20:46:15 10° NNW 20:50:11 43° N 20:50:11 43° N
USA 229 DEB 4.1 20:46:59 10° NNW 20:53:17 51° NNE 20:53:17 51° NNE
USA 229 4.1 20:47:05 10° NNW 20:53:22 50° NNE 20:53:22 50° NNE
Cosmos 2285 Rocket 4.5 20:48:32 10° NNW 20:53:24 49° NNE 20:53:24 49° NNE
USA 215 4.4 21:08:21 29° NNE 21:08:23 29° NNE 21:13:49 10° NW
Cosmos 2237 Rocket 4.2 21:04:39 10° N 21:06:19 18° N 21:06:19 18° N
Cosmos 2360 Rocket 3.7 21:23:56 10° NW 21:28:48 30° WSW 21:28:48 30° WSW
Cosmos 2219 Rocket 4.1 21:28:44 10° NNW 21:30:39 22° NNW 21:30:39 22° NNW
Cosmos 2333 Rocket 4.3 21:42:11 10° NNW 21:43:50 20° NNW 21:43:50 20° NNW
